Weather History for KDYT - May, 2013

Change the Weather History Date:

Sunday, May 26, 2013

  Actual Average Record
Temperature  
Mean Temperature 42 °F -  
Max Temperature 46 °F 58 °F 88 °F (1966)
Min Temperature 39 °F 41 °F 25 °F (1961)
Degree Days  
Heating Degree Days 22    
Moisture  
Dew Point 37 °F    
Average Humidity 80    
Maximum Humidity 87    
Minimum Humidity 71    
Precipitation  
Precipitation 0.00 in - - ()
Sea Level Pressure  
Sea Level Pressure 30.27 in    
Wind  
Wind Speed 7 mph (NE)    
Max Wind Speed 15 mph    
Max Gust Speed 16 mph    
Visibility 10 miles    
Events      
Averages and records for this station are not official NWS values.
T = Trace of Precipitation, MM = Missing Value Source: NWS Daily Summary

Daily Weather History Graph

Daily Weather History Graph

Search for Another Location

Airport or City:

Trip Planner

Search our weather history database for the weather conditions in past years. The results will help you decide how hot, cold, wet, or windy it might be!

Date:

Astronomy

May. 26, 2013 Rise Set
Actual Time 5:22 AM CDT 8:48 PM CDT
Civil Twilight 4:44 AM CDT 9:26 PM CDT
Nautical Twilight 3:55 AM CDT 10:16 PM CDT
Astronomical Twilight 2:51 AM CDT 11:21 PM CDT
Moon 10:34 PM CDT (5/26) 6:52 AM CDT (5/26)
Length of Visible Light 16h 41m
Length of Day
15h 26m
Waning Gibbous, 96% of the Moon is Illuminated
May 26
Waning Gibbous
May 31
Last Quarter
Jun 8
New
Jun 16
First Quarter
Jun 23
Full

Hourly Weather History & Observations

Time (CDT) Temp. Windchill Dew Point Humidity Pressure Visibility Wind Dir Wind Speed Gust Speed Precip Events Conditions
12:14 AM 41.0 °F 38.0 °F 35.6 °F 81% 30.32 in 10.0 mi ENE 4.6 mph - N/A   Clear
12:34 AM 39.2 °F 35.9 °F 35.6 °F 87% 30.31 in 10.0 mi ENE 4.6 mph - N/A   Clear
12:53 AM 39.2 °F - 35.6 °F 87% 30.31 in 10.0 mi Calm Calm - N/A   Clear
1:14 AM 39.2 °F 35.9 °F 35.6 °F 87% 30.31 in 10.0 mi North 4.6 mph - N/A   Clear
1:34 AM 39.2 °F 35.9 °F 35.6 °F 87% 30.31 in 10.0 mi North 4.6 mph - N/A   Clear
1:53 AM 39.2 °F 35.9 °F 35.6 °F 87% 30.31 in 10.0 mi North 4.6 mph - N/A   Clear
2:14 AM 39.2 °F 35.0 °F 35.6 °F 87% 30.31 in 10.0 mi North 5.8 mph - N/A   Clear
2:34 AM 39.2 °F 35.0 °F 35.6 °F 87% 30.30 in 10.0 mi NNE 5.8 mph - N/A   Clear
2:53 AM 39.2 °F 35.9 °F 35.6 °F 87% 30.31 in 10.0 mi North 4.6 mph - N/A   Clear
3:13 AM 39.2 °F 33.6 °F 35.6 °F 87% 30.30 in 10.0 mi NE 8.1 mph - N/A   Clear
3:34 AM 39.2 °F 34.2 °F 35.6 °F 87% 30.30 in 10.0 mi NNE 6.9 mph - N/A   Clear
3:53 AM 39.2 °F 35.0 °F 35.6 °F 87% 30.30 in 10.0 mi NNE 5.8 mph - N/A   Clear
4:13 AM 39.2 °F 34.2 °F 35.6 °F 87% 30.30 in 10.0 mi NNE 6.9 mph - N/A   Clear
4:34 AM 39.2 °F 35.0 °F 35.6 °F 87% 30.30 in 10.0 mi NNE 5.8 mph - N/A   Clear
4:53 AM 39.2 °F 35.0 °F 35.6 °F 87% 30.30 in 10.0 mi NNE 5.8 mph - N/A   Clear
5:13 AM 39.2 °F 34.2 °F 35.6 °F 87% 30.31 in 10.0 mi North 6.9 mph - N/A   Clear
5:34 AM 39.2 °F 33.6 °F 35.6 °F 87% 30.32 in 10.0 mi North 8.1 mph - N/A   Clear
5:53 AM 39.2 °F 34.2 °F 35.6 °F 87% 30.34 in 10.0 mi North 6.9 mph - N/A   Clear
6:13 AM 39.2 °F 33.6 °F 35.6 °F 87% 30.34 in 10.0 mi NNE 8.1 mph - N/A   Clear
6:34 AM 41.0 °F 34.7 °F 35.6 °F 81% 30.33 in 10.0 mi NNE 10.4 mph - N/A   Clear
6:53 AM 39.2 °F 33.6 °F 35.6 °F 87% 30.33 in 10.0 mi NE 8.1 mph - N/A   Clear
7:13 AM 41.0 °F 34.7 °F 35.6 °F 81% 30.32 in 10.0 mi NE 10.4 mph - N/A   Clear
7:34 AM 41.0 °F 34.3 °F 37.4 °F 87% 30.32 in 10.0 mi ENE 11.5 mph - N/A   Clear
7:53 AM 42.8 °F 36.6 °F 37.4 °F 81% 30.32 in 10.0 mi ENE 11.5 mph - N/A   Clear
8:14 AM 42.8 °F 38.6 °F 37.4 °F 81% 30.34 in 10.0 mi NE 6.9 mph - N/A   Clear
8:34 AM 41.0 °F 38.0 °F 35.6 °F 81% 30.35 in 10.0 mi NNE 4.6 mph - N/A   Clear
8:53 AM 41.0 °F 37.1 °F 35.6 °F 81% 30.35 in 10.0 mi NE 5.8 mph - N/A   Clear
9:14 AM 42.8 °F 38.0 °F 35.6 °F 76% 30.33 in 10.0 mi NE 8.1 mph - N/A   Clear
9:34 AM 41.0 °F 36.4 °F 37.4 °F 87% 30.32 in 10.0 mi NE 6.9 mph - N/A   Clear
9:53 AM 42.8 °F 39.3 °F 37.4 °F 81% 30.32 in 10.0 mi NE 5.8 mph - N/A   Clear
10:14 AM 42.8 °F 40.1 °F 37.4 °F 81% 30.31 in 10.0 mi NE 4.6 mph - N/A   Clear
10:34 AM 41.0 °F 35.8 °F 37.4 °F 87% 30.32 in 10.0 mi NNE 8.1 mph - N/A   Clear
10:53 AM 42.8 °F 38.0 °F 37.4 °F 81% 30.31 in 10.0 mi NNE 8.1 mph - N/A   Clear
11:14 AM 42.8 °F 38.6 °F 37.4 °F 81% 30.31 in 10.0 mi NE 6.9 mph - N/A   Clear
11:33 AM 42.8 °F 37.5 °F 37.4 °F 81% 30.31 in 10.0 mi ENE 9.2 mph - N/A   Clear
11:53 AM 44.6 °F 38.8 °F 37.4 °F 76% 30.30 in 10.0 mi ENE 11.5 mph - N/A   Clear
12:14 PM 44.6 °F 38.8 °F 37.4 °F 76% 30.30 in 10.0 mi ENE 11.5 mph - N/A   Clear
12:33 PM 44.6 °F 40.2 °F 37.4 °F 76% 30.29 in 10.0 mi NE 8.1 mph - N/A   Clear
12:54 PM 42.8 °F 37.5 °F 37.4 °F 81% 30.28 in 10.0 mi NNE 9.2 mph - N/A   Clear
1:13 PM 44.6 °F 41.4 °F 37.4 °F 76% 30.28 in 10.0 mi NE 5.8 mph - N/A   Clear
1:33 PM 44.6 °F 40.2 °F 37.4 °F 76% 30.26 in 10.0 mi ENE 8.1 mph - N/A   Clear
1:54 PM 44.6 °F 40.7 °F 37.4 °F 76% 30.27 in 10.0 mi ENE 6.9 mph - N/A   Clear
2:13 PM 44.6 °F 39.2 °F 37.4 °F 76% 30.25 in 10.0 mi ENE 10.4 mph - N/A   Clear
2:33 PM 46.4 °F 40.7 °F 37.4 °F 71% 30.24 in 10.0 mi ENE 12.7 mph - N/A   Clear
2:54 PM 46.4 °F 40.1 °F 39.2 °F 76% 30.23 in 10.0 mi ENE 15.0 mph - N/A   Clear
3:13 PM 46.4 °F 41.9 °F 39.2 °F 76% 30.23 in 10.0 mi ENE 9.2 mph - N/A   Clear
3:33 PM 46.4 °F 42.4 °F 37.4 °F 71% 30.23 in 10.0 mi East 8.1 mph - N/A   Clear
3:54 PM 46.4 °F 41.9 °F 37.4 °F 71% 30.22 in 10.0 mi ENE 9.2 mph - N/A   Clear
4:13 PM 46.4 °F 42.4 °F 37.4 °F 71% 30.22 in 10.0 mi East 8.1 mph - N/A   Clear
4:33 PM 46.4 °F 42.9 °F 37.4 °F 71% 30.21 in 10.0 mi East 6.9 mph - N/A   Clear
4:54 PM 46.4 °F 42.4 °F 37.4 °F 71% 30.21 in 10.0 mi East 8.1 mph - N/A   Clear
5:13 PM 46.4 °F 41.9 °F 37.4 °F 71% 30.20 in 10.0 mi East 9.2 mph - N/A   Clear
5:33 PM 46.4 °F 41.1 °F 37.4 °F 71% 30.19 in 10.0 mi East 11.5 mph - N/A   Clear
5:54 PM 46.4 °F 44.3 °F 37.4 °F 71% 30.19 in 10.0 mi East 4.6 mph - N/A   Clear
6:13 PM 46.4 °F 43.5 °F 37.4 °F 71% 30.18 in 10.0 mi East 5.8 mph - N/A   Clear
6:34 PM 44.6 °F 41.4 °F 35.6 °F 71% 30.19 in 10.0 mi ENE 5.8 mph - N/A   Clear
6:53 PM 42.8 °F 36.6 °F 35.6 °F 76% 30.18 in 10.0 mi ENE 11.5 mph - N/A   Clear
7:13 PM 42.8 °F 37.5 °F 35.6 °F 76% 30.19 in 10.0 mi ENE 9.2 mph 16.1 mph N/A   Clear
7:34 PM 42.8 °F 37.0 °F 37.4 °F 81% 30.19 in 10.0 mi ENE 10.4 mph - N/A   Clear
7:53 PM 42.8 °F 36.2 °F 35.6 °F 76% 30.20 in 10.0 mi ENE 12.7 mph - N/A   Clear
8:14 PM 42.8 °F 37.5 °F 35.6 °F 76% 30.21 in 10.0 mi East 9.2 mph - N/A   Clear
8:33 PM 42.8 °F 36.6 °F 37.4 °F 81% 30.20 in 10.0 mi East 11.5 mph - N/A   Clear
8:54 PM 42.8 °F 38.0 °F 37.4 °F 81% 30.21 in 10.0 mi East 8.1 mph - N/A   Clear
9:13 PM 42.8 °F 38.6 °F 37.4 °F 81% 30.21 in 10.0 mi East 6.9 mph - N/A   Mostly Cloudy
9:34 PM 42.8 °F 38.0 °F 35.6 °F 76% 30.20 in 10.0 mi East 8.1 mph - N/A   Mostly Cloudy
9:53 PM 42.8 °F 38.0 °F 37.4 °F 81% 30.19 in 10.0 mi ENE 8.1 mph - N/A   Scattered Clouds
10:13 PM 42.8 °F 38.6 °F 37.4 °F 81% 30.19 in 10.0 mi ENE 6.9 mph - N/A   Clear
10:34 PM 42.8 °F 39.3 °F 37.4 °F 81% 30.20 in 10.0 mi East 5.8 mph - N/A   Clear
10:53 PM 42.8 °F 38.6 °F 37.4 °F 81% 30.19 in 10.0 mi East 6.9 mph - N/A   Clear
11:13 PM 42.8 °F 38.6 °F 37.4 °F 81% 30.19 in 10.0 mi East 6.9 mph - N/A   Clear
11:34 PM 42.8 °F 39.3 °F 37.4 °F 81% 30.18 in 10.0 mi East 5.8 mph - N/A   Clear
11:53 PM 42.8 °F 38.0 °F 37.4 °F 81% 30.17 in 10.0 mi East 8.1 mph - N/A   Clear